TimePST,TemperatureF,Dew PointF,Humidity,Sea Level PressureIn,VisibilityMPH,Wind Direction,Wind SpeedMPH,Gust SpeedMPH,PrecipitationIn,Events,Conditions,WindDirDegrees,DateUTC
12:53 AM,46.9,-9999,N/A,29.61,6.0,South,15.0,27.6,0.00,,Haze,190,2012-11-18 08:53:00
1:53 AM,46.9,46.9,100,29.61,7.0,South,8.1,17.3,N/A,,Mostly Cloudy,180,2012-11-18 09:53:00
2:53 AM,46.0,46.0,100,29.63,3.0,South,9.2,-,0.00,Rain,Light Rain,170,2012-11-18 10:53:00
3:39 AM,44.6,44.6,100,29.62,4.0,SE,4.6,-,0.02,Rain,Light Rain,140,2012-11-18 11:39:00
3:50 AM,44.6,44.6,100,29.62,6.0,SE,5.8,-,0.02,Rain,Light Rain,130,2012-11-18 11:50:00
3:53 AM,44.1,44.1,100,29.62,6.0,SE,4.6,-,0.02,Rain,Light Rain,140,2012-11-18 11:53:00
4:53 AM,44.1,-9999,N/A,29.62,5.0,SE,3.5,-,0.00,Rain,Light Rain,130,2012-11-18 12:53:00
5:01 AM,44.6,-9999,N/A,29.62,2.5,SSE,4.6,-,0.02,Rain,Rain,150,2012-11-18 13:01:00
5:06 AM,44.6,-9999,N/A,29.63,1.8,SSE,6.9,-,0.03,Rain,Light Rain,150,2012-11-18 13:06:00
5:10 AM,44.6,-9999,N/A,29.63,1.2,SSE,8.1,-,0.07,Rain,Heavy Rain,150,2012-11-18 13:10:00
5:20 AM,44.6,-9999,N/A,29.62,2.0,SSE,5.8,-,N/A,Rain,Light Rain,150,2012-11-18 13:20:00
5:26 AM,44.6,-9999,N/A,29.62,4.0,SSE,6.9,-,0.12,Rain,Light Rain,150,2012-11-18 13:26:00
5:53 AM,44.6,-9999,N/A,29.62,6.0,SE,4.6,-,N/A,Rain,Light Rain,140,2012-11-18 13:53:00
6:14 AM,44.6,-9999,N/A,29.62,2.5,SE,5.8,-,0.01,Rain,Light Rain,140,2012-11-18 14:14:00
6:21 AM,44.6,-9999,N/A,29.61,2.5,SE,6.9,-,0.02,Rain,Light Rain,140,2012-11-18 14:21:00
6:30 AM,44.6,-9999,N/A,29.61,2.0,ESE,4.6,-,0.05,Rain,Light Rain,120,2012-11-18 14:30:00
6:33 AM,44.6,-9999,N/A,29.61,3.0,SE,3.5,-,0.05,Rain,Light Rain,140,2012-11-18 14:33:00
6:38 AM,44.6,-9999,N/A,29.61,5.0,SE,6.9,-,0.05,Rain,Light Rain,140,2012-11-18 14:38:00
6:53 AM,45.0,-9999,N/A,29.61,3.0,Variable,4.6,-,0.06,Rain,Light Rain,0,2012-11-18 14:53:00
7:15 AM,44.6,-9999,N/A,29.61,2.0,SSE,8.1,-,0.02,Rain,Light Rain,150,2012-11-18 15:15:00
7:29 AM,44.6,-9999,N/A,29.61,6.0,SSE,11.5,18.4,0.04,,Haze,150,2012-11-18 15:29:00
7:53 AM,45.0,-9999,N/A,29.61,5.0,SSE,10.4,-,0.05,Rain,Light Rain,150,2012-11-18 15:53:00
8:24 AM,44.6,-9999,N/A,29.62,1.8,SSE,8.1,-,0.02,Rain,Rain,150,2012-11-18 16:24:00
8:34 AM,44.6,-9999,N/A,29.62,3.0,SSE,8.1,-,0.03,Rain,Light Rain,150,2012-11-18 16:34:00
8:53 AM,45.0,-9999,N/A,29.63,2.5,SSE,8.1,17.3,0.03,Rain,Light Rain,160,2012-11-18 16:53:00
9:00 AM,44.6,-9999,N/A,29.62,5.0,SE,9.2,-,0.00,,Haze,140,2012-11-18 17:00:00
9:21 AM,44.6,-9999,N/A,29.62,4.0,SE,6.9,-,0.00,,Haze,140,2012-11-18 17:21:00
9:25 AM,46.4,-9999,N/A,29.61,1.5,SE,9.2,17.3,0.00,Rain,Light Rain,140,2012-11-18 17:25:00
9:29 AM,44.6,-9999,N/A,29.61,0.8,SSE,5.8,17.3,0.03,Rain,Rain,150,2012-11-18 17:29:00
9:36 AM,44.6,-9999,N/A,29.61,1.0,Variable,6.9,-,0.06,Rain,Rain,0,2012-11-18 17:36:00
9:39 AM,46.4,-9999,N/A,29.61,1.5,SE,8.1,-,0.07,Rain,Light Rain,140,2012-11-18 17:39:00
9:43 AM,46.4,-9999,N/A,29.61,3.0,SE,10.4,17.3,0.07,Rain,Light Rain,130,2012-11-18 17:43:00
9:53 AM,46.9,-9999,N/A,29.61,5.0,SE,6.9,-,0.07,,Haze,140,2012-11-18 17:53:00
10:00 AM,48.2,-9999,N/A,29.60,5.0,SE,8.1,-,N/A,,Haze,140,2012-11-18 18:00:00
10:33 AM,46.4,-9999,N/A,29.60,5.0,SE,10.4,20.7,N/A,,Haze,140,2012-11-18 18:33:00
10:53 AM,46.9,-9999,N/A,29.61,6.0,SE,12.7,20.7,N/A,,Haze,140,2012-11-18 18:53:00
11:29 AM,46.4,-9999,N/A,29.58,2.5,SSE,13.8,23.0,0.00,Rain,Light Rain,150,2012-11-18 19:29:00
11:37 AM,46.4,-9999,N/A,29.58,3.0,SSE,15.0,25.3,0.01,Rain,Light Rain,150,2012-11-18 19:37:00
11:53 AM,46.9,-9999,N/A,29.57,2.0,SSE,10.4,23.0,0.01,Rain,Light Rain,160,2012-11-18 19:53:00
12:03 PM,46.4,-9999,N/A,29.57,1.8,SSE,11.5,25.3,0.01,Rain,Rain,150,2012-11-18 20:03:00
12:17 PM,46.4,-9999,N/A,29.56,2.5,SSE,10.4,18.4,0.02,Rain,Light Rain,160,2012-11-18 20:17:00
12:38 PM,46.4,46.4,100,29.54,3.0,SE,11.5,19.6,0.03,Rain,Light Rain,140,2012-11-18 20:38:00
12:53 PM,46.9,46.9,100,29.55,2.0,SSE,11.5,25.3,0.03,Rain,Light Rain,150,2012-11-18 20:53:00
1:03 PM,46.4,-9999,N/A,29.53,1.8,SSE,13.8,20.7,0.01,Rain,Light Rain,150,2012-11-18 21:03:00
1:18 PM,48.2,-9999,N/A,29.52,2.5,SE,10.4,27.6,0.01,Rain,Light Rain,140,2012-11-18 21:18:00
1:26 PM,48.2,-9999,N/A,29.52,5.0,SE,9.2,20.7,0.01,,Haze,140,2012-11-18 21:26:00
1:34 PM,46.4,-9999,N/A,29.51,1.8,SE,17.3,25.3,0.01,Rain,Light Rain,140,2012-11-18 21:34:00
1:50 PM,46.4,-9999,N/A,29.50,2.0,SE,13.8,21.9,0.02,Rain,Light Rain,130,2012-11-18 21:50:00
1:53 PM,46.9,-9999,N/A,29.50,1.8,SE,12.7,26.5,0.03,Rain,Light Rain,140,2012-11-18 21:53:00
2:09 PM,46.4,-9999,N/A,29.49,2.0,SE,15.0,24.2,0.01,Rain,Light Rain,140,2012-11-18 22:09:00
2:15 PM,46.4,-9999,N/A,29.48,1.8,SE,13.8,24.2,0.02,Rain,Light Rain,140,2012-11-18 22:15:00
2:40 PM,46.4,46.4,100,29.46,2.0,SE,12.7,24.2,0.07,Rain,Light Rain,140,2012-11-18 22:40:00
2:53 PM,46.9,-9999,N/A,29.46,1.8,SE,13.8,31.1,0.08,Rain,Light Rain,140,2012-11-18 22:53:00
3:06 PM,46.4,-9999,N/A,29.44,2.0,SE,13.8,25.3,0.02,Rain,Light Rain,140,2012-11-18 23:06:00
3:16 PM,46.4,-9999,N/A,29.44,1.8,SE,13.8,25.3,0.04,Rain,Light Rain,140,2012-11-18 23:16:00
3:53 PM,46.9,46.9,100,29.42,1.2,SE,18.4,33.4,0.13,Rain,Rain,140,2012-11-18 23:53:00
4:08 PM,46.4,46.4,100,29.40,1.8,SSE,19.6,29.9,0.05,Rain,Rain,150,2012-11-19 00:08:00
4:17 PM,46.4,46.4,100,29.39,1.8,SE,13.8,29.9,0.08,Rain,Rain,140,2012-11-19 00:17:00
4:53 PM,46.9,-9999,N/A,29.35,1.8,SE,18.4,29.9,0.23,Rain,Rain,140,2012-11-19 00:53:00
5:10 PM,46.4,-9999,N/A,29.33,2.0,SE,16.1,27.6,0.06,Rain,Rain,140,2012-11-19 01:10:00
5:17 PM,46.4,-9999,N/A,29.33,1.8,SE,13.8,31.1,0.09,Rain,Rain,140,2012-11-19 01:17:00
5:27 PM,46.4,-9999,N/A,29.32,1.5,SE,16.1,34.5,0.16,Rain,Rain,130,2012-11-19 01:27:00
5:50 PM,46.4,46.4,100,29.29,1.0,ESE,9.2,28.8,0.28,Rain,Heavy Rain,120,2012-11-19 01:50:00
5:53 PM,46.4,46.4,100,29.29,1.0,ESE,8.1,28.8,N/A,Rain,Heavy Rain,120,2012-11-19 01:53:00
6:24 PM,48.2,46.4,93,29.30,1.2,South,16.1,28.8,0.13,Rain,Light Rain,180,2012-11-19 02:24:00
6:27 PM,48.2,46.4,93,29.32,2.0,South,16.1,33.4,0.13,Rain,Light Rain,190,2012-11-19 02:27:00
6:35 PM,48.2,46.4,93,29.33,6.0,South,20.7,47.2,0.13,Rain,Light Rain,180,2012-11-19 02:35:00
6:53 PM,50.0,-9999,N/A,29.38,5.0,South,13.8,34.5,0.13,,Haze,190,2012-11-19 02:53:00
6:59 PM,50.0,-9999,N/A,29.38,4.0,South,12.7,23.0,N/A,,Haze,190,2012-11-19 02:59:00
7:53 PM,50.0,50.0,100,29.42,6.0,SSW,10.4,19.6,N/A,,Overcast,200,2012-11-19 03:53:00
8:53 PM,50.0,50.0,100,29.43,5.0,South,8.1,-,0.00,,Overcast,180,2012-11-19 04:53:00
9:28 PM,50.0,50.0,100,29.43,5.0,South,10.4,-,0.00,Rain,Light Rain,190,2012-11-19 05:28:00
9:53 PM,51.1,51.1,100,29.42,4.0,SSE,10.4,17.3,0.00,Rain,Light Rain,160,2012-11-19 05:53:00
10:02 PM,51.8,51.8,100,29.42,4.0,South,8.1,16.1,0.00,Rain,Light Rain,180,2012-11-19 06:02:00
10:14 PM,51.8,51.8,100,29.42,2.5,SSE,10.4,23.0,0.01,Rain,Light Rain,160,2012-11-19 06:14:00
10:42 PM,51.8,51.8,100,29.41,3.0,SSE,9.2,19.6,0.01,Rain,Light Rain,160,2012-11-19 06:42:00
10:53 PM,50.0,50.0,100,29.42,3.0,South,8.1,19.6,0.02,Rain,Light Rain,170,2012-11-19 06:53:00
11:02 PM,51.8,-9999,N/A,29.41,2.0,South,8.1,24.2,0.01,Rain,Light Rain,170,2012-11-19 07:02:00
11:07 PM,51.8,-9999,N/A,29.41,2.5,Variable,6.9,23.0,0.01,Rain,Light Rain,0,2012-11-19 07:07:00
11:17 PM,51.8,-9999,N/A,29.41,4.0,South,9.2,18.4,0.01,Rain,Light Rain,170,2012-11-19 07:17:00
11:30 PM,51.8,-9999,N/A,29.42,5.0,South,11.5,25.3,0.01,,Haze,180,2012-11-19 07:30:00
11:38 PM,51.8,-9999,N/A,29.42,5.0,South,11.5,19.6,0.01,,Haze,170,2012-11-19 07:38:00
11:53 PM,51.1,-9999,N/A,29.43,6.0,South,9.2,17.3,0.01,,Haze,180,2012-11-19 07:53:00